Home > Time Zones > World Clock > Weather > Spain > Cadiz > Past weeks

Flag for Spain Weather past 2 weeks in Cadiz, Cádiz, Spain

Now
84 °F

Passing clouds.


Feels Like: 88 °F
Forecast: 69 / 88 °F
Wind: 3 mph from Southeast

Location: Rota Airport

Current Time: Jul 4, 2015 at 1:01:14 PM

Latest Report: Jul 4, 2015 at 12:00 PM


Visibility: N/A

Pressure: 30.09 "Hg

Humidity: 62%

Dew point: 70 °F

Location of CadizLocation

Historic Weather in Cadiz — Graph

°F

Cadiz temperature yesterday

Maximum temperature yesterday: 84 °F (at 12:00 PM)
Minimum temperature yesterday: 66 °F (at 6:00 AM)
Average temperature yesterday: 76 °F

Past Weeks' High & Low Weather Summary

 TemperatureHumidityPressure
High102 °F (Jun 27, 5:00 PM)94% (Jun 29, 7:00 AM)30.12 "Hg (Jun 29, 7:00 AM)
Low61 °F (Jun 24, 7:00 AM)17% (Jun 27, 5:00 PM)29.95 "Hg (Jun 19, 6:00 PM)
Average75 °F65%30.03 "Hg
* Reported Jun 19 12:00 Noon — Jul 4 12:00 Noon, Cadiz, Weather by CustomWeather, © 2015

Note: Actual official high and low records may vary slightly from our data, if they occured in-between our weather recording intervals... More about our weather records

Advertising

Cadiz weather history for previous 24 hours

 ConditionsComfort  
Time TempWeatherWind HumidityBarometerVisibility
12:00 PM
Sat, Jul 4
84 °FPassing clouds.3 mph62%30.09 "HgN/A
11:00 AM81 °FPassing clouds.3 mph70%30.09 "HgN/A
10:00 AM79 °FPassing clouds.5 mph74%30.09 "HgN/A
9:00 AM77 °FSunny.1 mph61%30.09 "Hg10 mi
8:00 AM70 °FClear.No wind69%30.09 "Hg10 mi
7:00 AM70 °FClear.1 mph69%30.07 "Hg10 mi
6:00 AM68 °FClear.3 mph73%30.07 "Hg10 mi
5:00 AM70 °FClear.No wind69%30.07 "Hg10 mi
4:00 AM72 °FClear.No wind65%30.07 "Hg10 mi
3:00 AM72 °FClear.No wind65%30.09 "Hg10 mi
2:00 AM73 °FClear.No wind61%30.09 "Hg10 mi
1:00 AM75 °FClear.No wind57%30.09 "Hg10 mi
12:00 AM75 °FClear.No wind61%30.09 "Hg10 mi
11:00 PM
Fri, Jul 3
75 °FClear.2 mph61%30.09 "Hg10 mi
10:00 PM77 °FPassing clouds.5 mph61%30.07 "HgN/A
9:00 PM77 °FSunny.12 mph61%30.07 "Hg10 mi
8:00 PM79 °FPassing clouds.13 mph61%30.07 "HgN/A
7:00 PM79 °FPassing clouds.13 mph61%30.07 "HgN/A
6:00 PM81 °FSunny.15 mph54%30.07 "Hg10 mi
5:00 PM82 °FSunny.15 mph55%30.07 "Hg10 mi
4:00 PM82 °FPassing clouds.14 mph58%30.07 "HgN/A
3:00 PM84 °FPassing clouds.12 mph55%30.07 "HgN/A
2:00 PM84 °FPassing clouds.9 mph55%30.07 "HgN/A
1:00 PM84 °FSunny.3 mph55%30.07 "Hg10 mi
Weather by CustomWeather, © 2015

See weather overviewHow to use our weather pages